Weather History for Istanbul, Turkey

Change the Weather History Date:

Friday, November 25, 2011

  Actual Average Record
Temperature  
Mean Temperature 47 °F -  
Max Temperature 50 °F 50 °F 66 °F (2006)
Min Temperature 44 °F 42 °F 32 °F (2004)
Degree Days  
Heating Degree Days 18    
Moisture  
Dew Point 30 °F    
Average Humidity 52    
Maximum Humidity 61    
Minimum Humidity 36    
Precipitation  
Precipitation 0.00 in - - ()
Sea Level Pressure  
Sea Level Pressure 30.44 in    
Wind  
Wind Speed 12 mph ()    
Max Wind Speed 16 mph    
Max Gust Speed -    
Visibility 6.2 miles    
Events      
Averages and records for this station are not official NWS values.
T = Trace of Precipitation, MM = Missing Value Source: Averaged Metar Reports

Daily Weather History Graph

Daily Weather History Graph

Search for Another Location

Airport:

Trip Planner

Search our weather history database for the weather conditions in past years. The results will help you decide how hot, cold, wet, or windy it might be!

Date:

Astronomy

Nov. 25, 2011 Rise Set
Actual Time 7:03 AM EET 4:39 PM EET
Civil Twilight 6:32 AM EET 5:09 PM EET
Nautical Twilight 5:59 AM EET 5:43 PM EET
Astronomical Twilight 5:26 AM EET 6:16 PM EET
Moon 7:08 AM EET (11/25) 4:47 PM EET (11/25)
Length of Visible Light 10h 36m
Length of Day
9h 36m
Waxing Crescent, 0% of the Moon is Illuminated
Nov 25
Waxing Crescent
Dec 2
First Quarter
Dec 10
Full
Dec 18
Last Quarter
Dec 24
New

Hourly Weather History & Observations

Time (EET) Temp. Windchill Dew Point Humidity Pressure Visibility Wind Dir Wind Speed Gust Speed Precip Events Conditions
12:20 AM 48.2 °F - 32.0 °F 54% 30.48 in 6.2 mi Variable 12.7 mph - N/A   Scattered Clouds
12:50 AM 46.4 °F 41.1 °F 32.0 °F 57% 30.48 in 6.2 mi NE 11.5 mph - N/A   Mostly Cloudy
1:20 AM 46.4 °F 39.8 °F 32.0 °F 57% 30.48 in 6.2 mi NE 16.1 mph - N/A   Scattered Clouds
1:50 AM 44.6 °F 38.1 °F 30.2 °F 57% 30.48 in 6.2 mi ENE 13.8 mph - N/A   Mostly Cloudy
2:00 AM 45 °F - 31 °F 45% 30.49 in 6 mi ENE 13.8 mph - -   Mostly Cloudy
2:20 AM 44.6 °F 37.8 °F 30.2 °F 57% 30.48 in 6.2 mi NE 15.0 mph - N/A   Mostly Cloudy
2:50 AM 44.6 °F 38.1 °F 30.2 °F 57% 30.45 in 6.2 mi ENE 13.8 mph - N/A   Mostly Cloudy
3:20 AM 44.6 °F 38.1 °F 30.2 °F 57% 30.45 in 6.2 mi ENE 13.8 mph - N/A   Mostly Cloudy
3:50 AM 44.6 °F 37.8 °F 30.2 °F 57% 30.45 in 6.2 mi ENE 15.0 mph - N/A   Mostly Cloudy
4:20 AM 44.6 °F 37.8 °F 30.2 °F 57% 30.45 in 6.2 mi NE 15.0 mph - N/A   Mostly Cloudy
4:50 AM 44.6 °F 38.1 °F 30.2 °F 57% 30.45 in 6.2 mi ENE 13.8 mph - N/A   Mostly Cloudy
5:20 AM 44.6 °F 37.8 °F 28.4 °F 53% 30.45 in 6.2 mi NE 15.0 mph - N/A   Mostly Cloudy
5:50 AM 44.6 °F 38.4 °F 30.2 °F 57% 30.45 in 6.2 mi NE 12.7 mph - N/A   Mostly Cloudy
6:20 AM 44.6 °F 38.4 °F 30.2 °F 57% 30.45 in 6.2 mi NE 12.7 mph - N/A   Mostly Cloudy
6:50 AM 44.6 °F 38.4 °F 30.2 °F 57% 30.48 in 6.2 mi ENE 12.7 mph - N/A   Mostly Cloudy
7:20 AM 48.2 °F - 32.0 °F 54% 30.48 in 6.2 mi ENE 12.7 mph - N/A   Mostly Cloudy
7:50 AM 46.4 °F 40.7 °F 28.4 °F 50% 30.48 in 6.2 mi NE 12.7 mph - N/A   Mostly Cloudy
8:00 AM 46 °F - 28 °F 37% 30.49 in 6 mi NE 12.7 mph - -   Mostly Cloudy
8:20 AM 46.4 °F 40.4 °F 28.4 °F 50% 30.48 in 6.2 mi ENE 13.8 mph - N/A   Mostly Cloudy
8:50 AM 46.4 °F 40.7 °F 28.4 °F 50% 30.48 in 6.2 mi ENE 12.7 mph - N/A   Scattered Clouds
9:20 AM 46.4 °F 40.7 °F 28.4 °F 50% 30.48 in 6.2 mi ENE 12.7 mph - N/A   Scattered Clouds
9:50 AM 46.4 °F 40.4 °F 28.4 °F 50% 30.48 in 6.2 mi ENE 13.8 mph - N/A   Scattered Clouds
10:20 AM 46.4 °F 40.7 °F 28.4 °F 50% 30.48 in 6.2 mi ENE 12.7 mph - N/A   Mostly Cloudy
10:50 AM 46.4 °F 40.1 °F 30.2 °F 53% 30.48 in 6.2 mi ENE 15.0 mph - N/A   Mostly Cloudy
11:20 AM 48.2 °F - 30.2 °F 50% 30.45 in 6.2 mi Variable 12.7 mph - N/A   Scattered Clouds
11:50 AM 46.4 °F 40.7 °F 30.2 °F 53% 30.45 in 6.2 mi NE 12.7 mph - N/A   Mostly Cloudy
12:20 PM 46.4 °F 40.1 °F 28.4 °F 50% 30.45 in 6.2 mi ENE 15.0 mph - N/A   Mostly Cloudy
12:50 PM 46.4 °F 40.1 °F 28.4 °F 50% 30.45 in 6.2 mi NE 15.0 mph - N/A   Mostly Cloudy
1:20 PM 46.4 °F 40.4 °F 30.2 °F 53% 30.45 in 6.2 mi NE 13.8 mph - N/A   Mostly Cloudy
1:50 PM 46.4 °F 40.1 °F 30.2 °F 53% 30.42 in 6.2 mi NE 15.0 mph - N/A   Mostly Cloudy
2:00 PM 46 °F - 29 °F 40% 30.45 in 6 mi NE 15.0 mph - -   Mostly Cloudy
2:20 PM 46.4 °F 40.4 °F 28.4 °F 50% 30.42 in 6.2 mi NE 13.8 mph - N/A   Mostly Cloudy
2:50 PM 46.4 °F 40.4 °F 30.2 °F 53% 30.42 in 6.2 mi NE 13.8 mph - N/A   Mostly Cloudy
3:20 PM 46.4 °F 41.1 °F 30.2 °F 53% 30.42 in 6.2 mi NE 11.5 mph - N/A   Mostly Cloudy
3:50 PM 46.4 °F 40.4 °F 30.2 °F 53% 30.42 in 6.2 mi NE 13.8 mph - N/A   Mostly Cloudy
4:20 PM 48.2 °F - 30.2 °F 50% 30.42 in 6.2 mi NE 15.0 mph - N/A   Mostly Cloudy
4:50 PM 46.4 °F 40.7 °F 30.2 °F 53% 30.42 in 6.2 mi NE 12.7 mph - N/A   Mostly Cloudy
5:20 PM 46.4 °F 40.1 °F 28.4 °F 50% 30.42 in 6.2 mi NE 15.0 mph - N/A   Mostly Cloudy
5:50 PM 46.4 °F 40.7 °F 30.2 °F 53% 30.42 in 6.2 mi NE 12.7 mph - N/A   Mostly Cloudy
6:20 PM 46.4 °F 40.4 °F 28.4 °F 50% 30.42 in 6.2 mi NE 13.8 mph - N/A   Mostly Cloudy
6:50 PM 46.4 °F 40.7 °F 28.4 °F 50% 30.42 in 6.2 mi NE 12.7 mph - N/A   Mostly Cloudy
7:20 PM 48.2 °F - 30.2 °F 50% 30.42 in 6.2 mi NE 11.5 mph - N/A   Mostly Cloudy
7:50 PM 46.4 °F 41.9 °F 28.4 °F 50% 30.42 in 6.2 mi NE 9.2 mph - N/A   Mostly Cloudy
8:00 PM 46 °F - 28 °F 36% 30.43 in 6 mi NE 9.2 mph - -   Mostly Cloudy
8:20 PM 48.2 °F - 28.4 °F 46% 30.39 in 6.2 mi Variable 8.1 mph - N/A   Mostly Cloudy
8:50 PM 48.2 °F - 30.2 °F 50% 30.39 in 6.2 mi NE 6.9 mph - N/A   Mostly Cloudy
9:20 PM 46.4 °F 42.9 °F 30.2 °F 53% 30.39 in 6.2 mi NE 6.9 mph - N/A   Mostly Cloudy
9:50 PM 44.6 °F 39.2 °F 30.2 °F 57% 30.39 in 6.2 mi NE 10.4 mph - N/A   Mostly Cloudy
10:20 PM 46.4 °F 42.4 °F 32.0 °F 57% 30.39 in 6.2 mi NE 8.1 mph - N/A   Mostly Cloudy
10:50 PM 44.6 °F 40.2 °F 32.0 °F 61% 30.39 in 6.2 mi NE 8.1 mph - N/A   Mostly Cloudy
11:20 PM 46.4 °F 41.5 °F 30.2 °F 53% 30.39 in 6.2 mi NE 10.4 mph - N/A   Scattered Clouds
11:50 PM 46.4 °F 41.9 °F 30.2 °F 53% 30.36 in 6.2 mi NE 9.2 mph - N/A   Scattered Clouds